Wind_Speed
16 17 17 17 17 17 17 18 18 18 18 18 18 17 17 17 17 17 17 18 18 17 17 16 14 14 15 15 16 17 18 19 18 19 20 21 22 22 23 23 24 25 25
16 16 16 17 17 16 17 18 18 17 17 17 18 18 18 17 17 17 17 17 16 15 14 13 13 13 14 14 15 15 15 16 16 17 18 19 19 20 20 21 23 24 24
16 16 16 16 16 16 16 17 17 17 17 17 17 18 18 18 17 16 16 15 15 14 14 13 13 13 13 13 13 14 14 14 15 15 15 15 16 17 18 19 20 21 22
15 15 15 15 15 15 16 16 17 17 17 17 18 18 18 17 17 17 17 16 15 14 14 13 13 14 14 14 13 13 12 12 12 12 12 14 14 15 17 17 18 19 20
15 15 15 15 15 15 15 16 17 17 17 17 17 17 18 17 17 18 18 17 16 15 15 14 14 14 14 14 13 12 11 10 10 11 12 13 14 15 15 15 16 17 18
15 15 15 14 14 15 15 16 16 16 16 16 17 17 18 18 18 18 17 17 16 16 16 15 14 13 13 13 12 11 11 10 10 10 11 12 12 12 13 14 14 16 17
14 14 14 14 14 14 15 15 15 16 16 16 17 18 18 18 18 18 18 18 17 16 16 15 14 13 12 12 11 11 10 10 10 10 10 10 12 11 11 12 13 13 15
13 14 13 13 13 14 14 15 16 16 17 17 17 17 18 18 18 19 19 18 17 16 16 15 14 13 11 11 10 10 9 9 9 9 9 9 10 10 10 10 10 11 12
13 13 13 13 13 14 14 15 15 16 16 16 17 17 18 19 18 19 20 19 18 17 17 16 14 12 11 11 10 9 9 9 9 9 9 9 9 8 8 9 9 10 11
12 12 13 13 13 14 15 15 16 16 16 16 17 17 18 19 19 19 20 19 19 18 17 15 13 12 11 11 11 10 9 9 8 8 8 8 7 8 8 8 9 9 11
13 13 14 13 13 14 15 15 15 15 16 16 17 17 18 18 19 19 19 19 20 18 16 14 13 12 11 11 10 9 9 9 8 8 8 8 8 8 8 9 9 10 11
14 14 14 15 14 15 15 15 15 15 16 16 17 17 17 18 19 19 20 20 20 18 15 14 13 12 12 11 10 9 9 9 8 8 8 8 8 8 9 9 10 11 12
16 15 16 16 15 15 15 15 15 16 16 17 17 17 17 18 19 19 19 20 19 18 16 15 14 13 12 11 10 9 9 9 8 8 7 7 8 9 9 10 11 12 12
18 17 17 16 16 16 16 16 16 16 16 17 17 17 18 18 18 18 19 19 19 18 16 15 14 13 13 12 11 10 9 9 9 8 7 8 9 9 9 11 12 12 13
18 18 18 17 17 17 17 17 16 16 17 17 17 17 17 17 18 18 18 18 18 17 16 15 14 13 13 12 11 11 10 9 9 9 9 10 10 10 11 11 12 11 12
19 20 19 19 18 18 18 17 16 16 17 17 17 18 17 17 18 18 17 17 17 16 16 15 14 14 14 13 11 11 10 10 10 10 10 10 11 11 11 11 12 12 12
20 20 20 19 19 18 18 18 17 17 17 17 17 17 17 17 18 18 17 17 16 16 15 15 15 14 14 13 12 11 10 10 10 10 10 11 11 11 12 12 12 13 13
21 21 21 20 20 19 18 18 18 17 17 17 17 16 17 18 17 18 18 17 16 15 15 14 14 14 14 13 12 12 11 11 11 11 11 11 11 11 11 12 12 12 13
23 23 22 21 20 19 19 19 19 18 17 17 17 17 17 17 17 18 17 17 16 16 15 15 15 15 15 14 13 13 13 12 11 11 12 11 11 11 12 12 12 13 13
23 22 21 21 21 20 20 19 19 18 17 17 17 16 16 17 17 17 17 17 17 16 16 16 16 16 16 15 14 13 12 11 11 11 12 12 11 11 12 11 12 12 13
22 22 22 22 21 21 20 19 19 19 18 17 17 16 16 17 17 17 17 17 17 17 16 17 17 16 16 15 14 13 12 11 11 11 11 12 12 11 11 11 11 12 13
22 22 23 21 21 21 21 20 19 19 18 17 17 16 16 17 17 18 17 17 17 17 16 17 16 15 14 13 13 12 11 11 11 11 11 11 11 11 10 10 11 11 13
22 22 22 21 21 21 20 19 19 19 18 17 16 16 15 16 16 17 17 17 17 17 17 16 15 14 13 12 12 12 12 11 10 10 10 10 11 11 11 11 11 12 13
23 23 22 21 20 20 19 19 19 18 17 16 16 15 15 16 16 17 17 17 17 17 16 15 14 13 12 11 11 12 11 9 9 10 10 10 10 11 11 11 12 13 14
22 22 22 21 20 20 19 18 18 18 17 16 16 15 15 16 16 17 17 17 16 16 15 14 12 12 11 11 11 10 10 9 9 10 10 11 11 12 13 13 13 14 15
22 22 21 21 20 19 18 18 17 17 16 15 15 15 15 15 15 16 16 16 15 14 14 13 11 12 11 11 11 11 11 9 10 10 11 11 11 12 13 13 14 15 16
Wind_Direction
327 328 328 329 330 330 330 329 328 328 326 324 324 325 324 322 319 319 320 318 316 313 309 306 302 297 289 285 279 274 269 266 265 261 259 259 260 259 258 260 261 257 253
328 330 332 332 331 331 333 333 331 330 333 332 329 328 326 325 324 324 324 323 320 319 317 315 307 301 297 292 287 280 272 269 268 264 262 262 261 261 260 260 261 257 254
327 328 329 330 331 333 336 339 336 335 336 337 339 337 332 331 332 332 331 329 326 323 321 317 312 308 304 301 294 287 277 271 268 267 267 265 263 263 264 264 262 260 258
330 328 328 330 335 336 338 340 341 339 338 339 341 340 340 337 337 337 335 331 328 326 327 325 319 313 307 305 297 289 284 279 273 268 267 264 263 267 267 265 264 263 262
331 330 329 331 334 338 339 340 341 342 342 340 341 343 345 344 342 340 338 337 334 330 328 327 322 316 310 307 302 294 285 284 279 273 267 265 264 266 267 266 265 265 265
328 331 333 335 336 340 342 344 346 347 347 347 345 345 346 346 347 346 345 345 341 333 328 326 324 318 314 310 304 295 286 283 281 274 272 267 266 269 267 267 266 268 272
326 331 334 337 340 342 346 348 347 347 347 346 346 345 346 347 349 348 345 346 344 339 335 331 326 321 316 313 306 299 292 289 287 281 275 273 267 273 276 275 273 276 278
323 327 331 335 339 342 346 348 349 350 348 347 349 349 348 347 348 349 348 346 345 342 339 333 329 325 320 317 311 305 300 295 290 284 280 278 274 272 277 278 278 280 282
319 325 330 334 337 338 341 342 344 344 346 348 350 350 348 348 347 346 347 346 345 342 340 338 336 333 326 326 321 314 308 303 297 292 290 285 279 281 284 284 283 286 289
314 321 326 329 331 333 336 338 338 341 344 345 347 346 345 345 345 345 346 345 344 343 341 342 340 336 330 323 323 316 310 308 304 296 290 284 287 294 294 293 294 295 293
306 315 319 320 323 327 330 333 336 339 341 342 343 343 343 343 343 344 345 345 345 345 346 344 341 338 334 329 325 322 315 310 306 301 295 291 291 293 293 296 299 300 298
300 307 314 315 317 322 326 330 333 335 336 338 338 339 339 341 342 342 343 345 345 345 345 344 344 341 338 334 329 328 323 314 307 304 301 299 293 291 293 294 298 298 299
294 300 307 311 314 317 318 321 325 328 331 333 335 335 336 337 339 340 340 343 345 345 344 343 343 339 335 333 329 324 321 318 313 309 305 309 309 302 299 299 301 301 302
289 295 302 305 308 311 313 314 319 323 326 328 330 330 332 334 335 335 336 339 340 340 340 341 340 339 336 332 326 324 321 318 315 313 311 314 315 311 303 306 306 307 308
287 290 297 300 303 306 307 310 313 317 320 322 324 325 327 329 332 333 333 337 340 342 341 340 341 341 341 335 327 321 317 313 311 310 309 309 312 312 309 308 311 308 312
284 288 291 294 297 300 302 304 307 311 315 319 321 322 323 326 329 332 334 336 338 339 340 341 339 338 338 335 330 325 320 315 311 310 310 314 313 312 312 311 313 314 314
282 284 287 288 291 294 297 299 303 306 310 314 317 319 321 323 326 329 332 333 334 335 335 337 338 337 337 337 336 333 330 326 322 318 316 317 317 318 316 316 316 316 314
279 281 282 284 286 290 292 295 299 301 305 309 313 315 317 320 323 325 327 330 330 331 332 333 335 335 335 335 335 334 330 327 325 323 320 318 320 322 322 322 321 320 321
277 278 278 279 283 286 288 291 294 297 300 304 308 312 315 318 321 324 325 326 327 327 328 329 330 330 331 330 329 330 329 327 324 322 322 321 323 324 322 321 323 322 322
276 276 276 277 279 282 285 287 290 293 297 301 305 308 311 314 318 321 324 326 325 325 325 325 326 326 326 326 325 327 328 327 327 325 323 323 328 327 324 323 323 323 324
273 274 276 277 278 279 281 283 287 290 294 297 300 303 307 309 313 318 321 324 324 324 324 324 324 324 323 322 323 325 327 326 328 329 327 326 326 328 328 326 325 326 327
273 275 274 274 277 278 279 281 282 286 291 293 294 298 304 308 311 314 317 319 321 321 322 322 321 321 323 324 325 324 325 325 327 329 328 330 329 326 325 327 327 330 332
270 272 272 274 276 277 277 277 278 281 285 289 292 295 300 305 309 314 316 316 318 320 321 320 319 318 319 321 323 324 324 326 326 328 330 332 334 332 329 329 334 337 336
271 271 271 273 275 275 275 276 275 276 279 283 286 292 298 305 310 314 316 316 318 320 319 317 319 321 321 321 324 327 330 328 326 327 331 335 336 334 331 329 329 332 335
270 271 270 271 273 275 275 274 274 274 274 278 285 292 299 304 308 312 315 315 316 318 319 317 316 316 318 321 323 324 327 332 335 333 334 334 332 332 333 332 330 330 332
270 270 268 268 270 271 271 270 269 270 272 276 282 288 295 300 306 312 315 317 316 317 318 315 312 312 313 315 317 317 318 324 333 333 332 329 329 330 330 331 330 329 330
Height
5783 5780 5777 5775 5772 5769 5766 5763 5760 5758 5755 5752 5749 5745 5742 5739 5735 5732 5729 5726 5723 5720 5717 5714 5713 5712 5711 5710 5709 5709 5709 5709 5710 5712 5713 5714 5715 5717 5718 5720 5721 5723 5725
5781 5778 5776 5773 5770 5767 5764 5761 5758 5755 5752 5749 5746 5742 5739 5736 5732 5729 5726 5722 5719 5716 5713 5711 5709 5708 5707 5706 5705 5704 5704 5704 5705 5706 5707 5708 5709 5710 5712 5713 5714 5716 5717
5780 5777 5774 5771 5768 5765 5762 5760 5757 5754 5751 5747 5744 5740 5737 5733 5730 5726 5723 5720 5716 5713 5711 5708 5706 5704 5703 5701 5700 5700 5700 5700 5700 5701 5702 5703 5704 5705 5706 5707 5708 5709 5710
5778 5775 5772 5770 5767 5764 5761 5758 5755 5752 5749 5746 5742 5739 5735 5731 5728 5724 5721 5717 5714 5711 5708 5706 5704 5701 5700 5698 5697 5696 5696 5696 5696 5697 5698 5698 5699 5699 5700 5701 5703 5703 5705
5776 5773 5771 5768 5765 5762 5760 5757 5754 5750 5747 5744 5740 5737 5733 5730 5726 5722 5719 5715 5712 5709 5706 5704 5701 5699 5697 5695 5693 5692 5692 5692 5693 5693 5694 5694 5695 5695 5696 5697 5698 5699 5700
5774 5772 5769 5766 5764 5761 5758 5755 5752 5749 5746 5743 5739 5736 5732 5728 5725 5721 5717 5714 5710 5707 5705 5702 5699 5696 5694 5692 5690 5689 5689 5689 5689 5689 5690 5690 5691 5691 5691 5692 5693 5694 5695
5772 5770 5767 5765 5762 5760 5757 5754 5752 5748 5745 5742 5738 5735 5731 5727 5724 5720 5716 5713 5709 5706 5702 5699 5697 5694 5691 5689 5688 5687 5686 5686 5686 5686 5687 5687 5687 5687 5688 5688 5689 5689 5689
5771 5768 5766 5764 5761 5759 5756 5754 5751 5748 5744 5741 5737 5734 5730 5726 5723 5719 5715 5711 5708 5704 5700 5697 5694 5691 5689 5687 5686 5685 5684 5683 5683 5683 5683 5684 5684 5684 5684 5685 5685 5685 5685
5769 5767 5764 5762 5760 5758 5755 5753 5750 5747 5744 5740 5737 5733 5729 5726 5722 5718 5714 5710 5706 5702 5699 5695 5692 5690 5688 5686 5684 5683 5682 5682 5681 5681 5681 5681 5681 5681 5681 5681 5681 5681 5681
5767 5765 5763 5761 5759 5756 5754 5752 5749 5746 5743 5740 5736 5733 5729 5725 5721 5717 5713 5709 5705 5701 5697 5694 5691 5689 5686 5685 5683 5682 5681 5680 5680 5679 5679 5679 5679 5678 5678 5678 5678 5678 5677
5765 5763 5761 5759 5757 5755 5753 5750 5747 5744 5742 5738 5735 5732 5728 5724 5720 5716 5712 5708 5704 5699 5696 5693 5690 5687 5685 5683 5681 5680 5679 5678 5678 5677 5677 5677 5676 5676 5676 5675 5675 5674 5674
5762 5761 5759 5757 5755 5753 5750 5748 5745 5743 5740 5737 5734 5731 5727 5723 5719 5715 5711 5706 5702 5698 5695 5691 5688 5686 5683 5681 5680 5678 5677 5676 5676 5675 5675 5675 5674 5674 5673 5672 5672 5671 5670
5759 5757 5755 5754 5752 5750 5748 5745 5743 5741 5738 5735 5732 5729 5726 5722 5718 5714 5709 5705 5701 5697 5693 5690 5687 5684 5682 5680 5678 5677 5675 5675 5674 5673 5673 5672 5672 5671 5670 5670 5669 5668 5667
5754 5753 5752 5750 5749 5747 5745 5742 5740 5738 5736 5733 5730 5726 5723 5720 5716 5711 5707 5703 5699 5695 5691 5688 5685 5683 5680 5678 5676 5675 5673 5672 5671 5671 5670 5670 5669 5668 5668 5667 5666 5664 5663
5749 5748 5747 5746 5745 5743 5741 5739 5737 5735 5732 5730 5727 5724 5720 5717 5713 5709 5705 5701 5697 5693 5690 5687 5684 5682 5679 5676 5674 5672 5671 5670 5669 5668 5668 5667 5667 5666 5665 5664 5663 5661 5659
5745 5744 5743 5742 5740 5739 5737 5736 5733 5731 5729 5726 5723 5720 5717 5714 5710 5707 5703 5699 5695 5692 5689 5686 5683 5680 5677 5675 5672 5670 5669 5668 5667 5666 5665 5664 5664 5662 5661 5660 5659 5658 5656
5739 5739 5737 5736 5735 5734 5733 5731 5729 5727 5725 5722 5720 5717 5714 5711 5708 5704 5701 5697 5694 5690 5687 5684 5681 5678 5675 5673 5670 5668 5667 5665 5664 5663 5662 5661 5660 5659 5658 5657 5656 5654 5653
5734 5733 5732 5731 5730 5728 5727 5726 5724 5722 5720 5718 5716 5713 5711 5708 5705 5702 5698 5695 5692 5689 5686 5683 5680 5677 5674 5671 5669 5667 5665 5664 5662 5661 5660 5659 5658 5656 5655 5654 5652 5651 5649
5727 5726 5725 5725 5724 5723 5721 5720 5719 5717 5716 5714 5712 5709 5707 5704 5702 5699 5695 5692 5689 5686 5683 5680 5678 5675 5672 5670 5667 5665 5663 5661 5660 5659 5657 5656 5655 5654 5652 5651 5649 5647 5646
5719 5718 5718 5718 5717 5717 5716 5714 5713 5712 5711 5709 5707 5706 5703 5701 5698 5695 5692 5689 5686 5684 5681 5678 5675 5672 5670 5667 5665 5663 5661 5659 5657 5656 5655 5653 5652 5650 5649 5647 5646 5644 5643
5712 5712 5711 5711 5711 5710 5710 5709 5708 5707 5706 5704 5703 5702 5699 5697 5695 5692 5689 5686 5683 5680 5678 5675 5672 5669 5666 5664 5662 5660 5658 5657 5655 5654 5652 5651 5649 5647 5646 5644 5643 5642 5640
5705 5705 5705 5705 5704 5704 5703 5703 5702 5701 5700 5699 5698 5697 5696 5693 5691 5689 5686 5683 5680 5677 5674 5671 5668 5666 5663 5661 5659 5658 5656 5654 5653 5651 5650 5649 5647 5645 5644 5643 5641 5640 5638
5699 5698 5698 5698 5698 5698 5697 5697 5696 5696 5695 5694 5693 5693 5691 5690 5687 5685 5682 5679 5676 5673 5670 5667 5664 5662 5660 5659 5657 5655 5654 5652 5651 5650 5648 5647 5645 5644 5642 5640 5639 5637 5635
5692 5692 5692 5691 5691 5691 5691 5690 5690 5690 5690 5689 5689 5688 5687 5685 5683 5681 5678 5676 5673 5670 5666 5663 5661 5659 5658 5656 5655 5653 5651 5650 5649 5648 5646 5645 5644 5642 5640 5639 5637 5635 5633
5685 5685 5685 5685 5685 5685 5684 5684 5684 5684 5684 5684 5684 5683 5682 5681 5679 5677 5675 5672 5669 5666 5663 5661 5659 5657 5655 5654 5653 5651 5649 5648 5647 5646 5645 5644 5642 5640 5639 5637 5635 5633 5631
5678 5678 5678 5678 5678 5678 5678 5678 5679 5678 5678 5679 5679 5678 5678 5677 5675 5673 5671 5669 5666 5664 5661 5658 5656 5654 5653 5652 5650 5649 5648 5646 5645 5644 5643 5642 5640 5638 5636 5635 5632 5630 5628